EW3836 Weather Reports


time (UTC)temp
C
wind
direction
speed
KPH
gust
KPH
rain 1hr
cm
rain 24hr
cm
rain mn
cm
humidity
%
barometer
mb
20260505181519 16 256 0.0 0.0 0.00 0.00 0.00 68 1008.4
20260505180015 16 304 0.0 0.0 0.00 0.00 0.00 67 1008.3
20260505174513 16 219 0.0 0.0 0.00 0.00 0.00 69 1008.2
20260505173012 16 259 0.0 0.0 0.00 0.00 0.00 72 1008.1
20260505171510 16 273 0.0 0.0 0.00 0.00 0.00 67 1008.1
20260505170009 16 282 0.0 0.0 0.00 0.00 0.00 68 1007.9
20260505164507 15 250 0.0 0.0 0.00 0.00 0.00 68 1007.8
20260505163010 15 302 0.0 0.0 0.00 0.00 0.00 67 1007.7
20260505161505 15 239 0.0 0.0 0.00 0.00 0.00 70 1007.6
20260505153002 15 241 0.0 0.0 0.00 0.00 0.00 69 1007.3
20260505151611 14 245 0.0 0.0 0.00 0.00 0.00 69 1007.2
20260505140111 13 247 0.0 0.0 0.00 0.00 0.00 72 1006.5
20260505124544 12 197 0.0 0.0 0.00 0.00 0.00 70 1005.8
20260505123047 13 199 0.0 0.0 0.00 0.00 0.00 69 1005.8
20260505121540 13 199 0.0 0.0 0.00 0.00 0.00 68 1005.7
20260505120045 13 228 0.0 0.0 0.00 0.00 0.00 68 1005.5
20260505114544 13 224 0.0 0.0 0.00 0.00 0.00 67 1005.4
20260505113031 13 202 0.0 0.0 0.00 0.00 0.00 67 1005.3
20260505111528 13 155 0.0 0.0 0.00 0.00 0.00 66 1005.2
20260505101533 14 233 0.0 0.0 0.00 0.00 0.00 63 1004.8
20260505100020 14 214 0.0 0.0 0.00 0.00 0.00 64 1004.6
20260505094530 14 214 0.0 0.0 0.00 0.00 0.00 64 1004.6
20260505093016 14 173 0.0 0.0 0.00 0.00 0.00 64 1004.5
20260505091515 14 188 0.0 0.0 0.00 0.00 0.00 65 1004.5
20260505090019 14 198 0.0 0.0 0.00 0.00 0.00 64 1004.5
20260505084511 14 196 0.0 0.0 0.00 0.00 0.00 63 1004.4
20260505083015 14 207 0.0 0.0 0.00 0.00 0.00 61 1004.5
20260505081503 15 205 0.0 0.0 0.00 0.00 0.00 57 1004.6
20260505074555 17 284 0.0 0.0 0.00 0.00 0.00 45 1004.3
20260505073057 16 119 0.0 0.0 0.00 0.00 0.00 46 1004.1
20260505071558 17 119 0.0 0.0 0.00 0.00 0.00 46 1003.9
20260505070045 16 119 0.0 0.0 0.00 0.00 0.00 47 1003.8
20260505064548 17 119 0.0 0.0 0.00 0.00 0.00 48 1003.7
20260505063043 17 119 0.0 0.0 0.00 0.00 0.00 47 1003.6
20260505061547 17 119 0.0 0.0 0.00 0.00 0.00 48 1003.7
20260505060050 16 119 0.0 0.0 0.00 0.00 0.00 50 1003.6
20260505054542 16 119 0.0 0.0 0.00 0.00 0.00 51 1003.6
20260505053042 16 119 0.0 0.0 0.00 0.00 0.00 50 1003.6
20260505051556 16 119 0.0 0.0 0.00 0.00 0.00 51 1003.6
20260505041539 18 100 0.0 0.0 0.00 0.00 0.00 44 1003.7
20260505040039 18 84 0.0 0.0 0.00 0.00 0.00 44 1003.6
20260505034537 18 44 0.0 0.0 0.00 0.00 0.00 42 1003.4
20260505033038 18 44 0.0 0.0 0.00 0.00 0.00 42 1003.3
20260505031535 19 44 0.0 0.0 0.00 0.00 0.00 41 1003.0
20260505030035 20 44 0.0 0.0 0.00 0.00 0.00 40 1003.0
20260505024534 20 44 0.0 0.0 0.00 0.00 0.00 39 1002.9
20260505023033 22 44 0.0 0.0 0.00 0.00 0.00 38 1002.8
20260505021532 23 44 0.0 0.0 0.00 0.00 0.00 35 1002.9
20260505020031 22 44 0.0 0.0 0.00 0.00 0.00 37 1002.9
20260505014530 23 44 0.0 0.0 0.00 0.00 0.00 35 1003.1
20260505013028 22 26 0.0 0.0 0.00 0.00 0.00 36 1003.2
20260505011527 23 25 0.0 0.0 0.00 0.00 0.00 35 1003.2
20260505010025 22 306 0.0 0.0 0.00 0.00 0.00 38 1003.4
20260505004526 22 11 0.0 0.0 0.00 0.00 0.00 39 1003.4
20260505003021 22 316 0.0 0.0 0.00 0.00 0.00 38 1003.5
20260505001519 22 58 0.0 0.0 0.00 0.00 0.00 37 1003.5
20260505000022 22 308 0.0 0.0 0.00 0.00 0.00 35 1003.6
20260504234511 22 53 0.0 0.0 0.00 0.00 0.00 33 1003.6
20260504233008 22 321 0.0 0.0 0.00 0.00 0.00 34 1003.6
20260504231509 23 360 0.0 0.0 0.00 0.00 0.00 31 1003.7
20260504230004 22 309 0.0 0.0 0.00 0.00 0.00 32 1003.7
20260504224501 21 338 0.0 0.0 0.00 0.00 0.00 41 1003.8
20260504223103 22 320 0.0 0.0 0.00 0.00 0.00 37 1003.9
20260504221602 22 57 0.0 0.0 0.00 0.00 0.00 39 1004.0
20260504220056 23 329 0.0 0.0 0.00 0.00 0.00 41 1004.1
20260504214606 22 324 0.0 0.0 0.00 0.00 0.00 46 1004.3
20260504213056 20 47 0.0 0.0 0.00 0.00 0.00 45 1004.5
20260504211552 21 90 0.0 0.0 0.00 0.00 0.00 45 1004.6
20260504210043 21 19 0.0 0.0 0.00 0.00 0.00 49 1004.6
20260504204541 21 281 0.0 0.0 0.00 0.00 0.00 43 1004.7
20260504203040 21 312 0.0 0.0 0.00 0.00 0.00 42 1004.8
20260504201539 20 325 0.0 0.0 0.00 0.00 0.00 47 1004.9
20260504200033 20 310 0.0 0.0 0.00 0.00 0.00 45 1004.8
20260504194531 19 286 0.0 0.0 0.00 0.00 0.00 48 1004.9
20260504193028 19 323 0.0 0.0 0.00 0.00 0.00 50 1004.9
20260504191526 18 262 0.0 0.0 0.00 0.00 0.00 48 1005.0
20260504190023 18 317 0.0 0.0 0.00 0.00 0.00 48 1005.1
20260504184521 18 322 0.0 0.0 0.00 0.00 0.00 54 1005.1
20260504183019 18 292 0.0 0.0 0.00 0.00 0.00 48 1005.2